Location: Terra Rouge Observatory
(46.0000°N, 62.7500°W)
Time: 00:36:24
(UTC-03:00)

Daily predictions for brighter satellites

Satellite Brightness Start Highest point End
(mag) Time Altitude Azimuth Time Altitude Azimuth Time Altitude Azimuth
COSMOS 2455 4.4 00:11:52 27° NE 00:11:52 27° NE 00:14:32 10° NE
ATLAS CENTAUR R/B 4.2 00:14:33 10° N 00:16:53 15° NNE 00:16:53 15° NNE
SL-16 R/B 4.4 00:28:33 16° NE 00:28:33 16° NE 00:29:58 10° NE
Cosmos 2237 Rocket 3.8 00:28:38 28° NE 00:28:38 28° NE 00:31:16 10° NNE
Cosmos 2333 Rocket 3.5 00:39:22 35° NNE 00:39:22 35° NNE 00:42:35 10° NNE
USA 215 4.4 00:39:52 32° W 00:39:52 32° W 00:43:34 10° WNW
COSMOS 2428 4.2 00:54:28 32° NW 00:54:28 32° NW 00:59:08 10° NNE
Cosmos 2278 Rocket 3.9 00:54:22 10° NW 00:57:01 26° NW 00:57:01 26° NW
CZ-2C R/B 4.1 01:01:10 10° NNE 01:04:16 33° NNE 01:04:16 33° NNE
Cosmos 2369 Rocket 3.6 01:34:21 10° NNW 01:38:53 33° NE 01:38:53 33° NE
Cosmos 1943 Rocket 4.5 01:39:02 10° N 01:43:06 20° NE 01:45:59 14° E
Cosmos 2219 Rocket 3.9 01:44:56 25° NW 01:44:56 25° NW 01:49:11 10° N
ATLAS 3B R/B 3.5 01:53:38 45° WNW 01:54:33 47° NW 02:01:37 10° NNE
COSMOS 2455 4.2 01:54:59 32° NW 01:54:59 32° NW 02:00:16 10° NNE
ATLAS CENTAUR R/B 4.4 01:52:44 10° NNW 01:53:10 12° NNW 01:53:10 12° NNW
CZ-4C R/B 3.2 02:00:39 45° NNE 02:00:39 45° NNE 02:04:55 10° NE
SL-16 R/B 3.3 02:10:26 39° NNW 02:10:26 39° NNW 02:14:31 10° NNE
Cosmos 2237 Rocket 3.9 02:10:27 25° NW 02:10:27 25° NW 02:14:49 10° N
Cosmos 839 Rocket 4.4 02:09:36 10° NW 02:18:06 82° NE 02:18:06 82° NE
ATLAS 5 CENTAUR R/B 4.0 02:20:57 19° ENE 02:20:57 19° ENE 02:22:59 10° ENE
Cosmos 2333 Rocket 4.2 02:21:20 19° NW 02:21:52 20° NW 02:26:01 10° N
CZ-2D R/B 4.5 02:33:02 10° ENE 02:35:28 13° E 02:36:40 12° ESE
CZ-2C R/B 4.4 02:42:15 10° N 02:45:47 23° NW 02:45:47 23° NW
Cosmos 1603 4.4 02:53:15 49° NNW 02:53:15 49° NNW 02:58:00 10° NNE
Resurs 1-4 Rocket 4.1 02:49:05 10° NE 02:52:52 20° E 02:54:02 18° ESE
CZ-3A R/B 3.6 02:52:17 44° WNW 02:53:31 51° NNW 02:57:41 10° NE
NPP 3.9 03:00:23 10° NNE 03:05:09 68° NE 03:05:09 68° NE
Meteor 1-27 4.3 03:07:37 72° NE 03:07:37 72° NE 03:12:40 10° NNE
NOSS 3-2 (A) 3.8 03:12:19 54° WNW 03:12:48 55° NW 03:19:30 10° NE
CENTAUR R/B 3.1 03:14:13 43° SE 03:14:48 45° ESE 03:21:14 10° NE
Cosmos 2315 Rocket 4.4 03:14:26 50° SE 03:15:35 58° E 03:21:46 10° NNE
Cosmos 1943 3.3 03:17:18 70° NNW 03:17:18 70° NNW 03:22:32 10° NNE
Cosmos 2369 Rocket 3.7 03:18:18 10° NW 03:20:37 24° NW 03:20:37 24° NW
ARIANE 5 R/B 3.3 03:18:37 10° NNE 03:23:37 43° E 03:24:18 41° ESE
IRS-1D 4.5 03:19:02 10° NNE 03:24:00 41° E 03:24:55 38° ESE
Spot 4 Rocket 4.3 03:20:30 10° NNE 03:25:38 61° E 03:25:45 61° ESE
Cosmos 1943 Rocket 2.1 03:21:56 10° NNW 03:27:24 82° NW 03:27:24 82° NW
S3M 4.5 03:29:19 45° WNW 03:29:19 45° WNW 03:35:12 10° N
UNK 4.3 03:30:40 51° E 03:31:08 54° ENE 03:35:37 10° N
NOSS 3-2 (C) 3.9 03:32:05 47° WNW 03:33:08 51° NW 03:39:49 10° NE
COSMOS 2406 4.1 03:34:29 35° SE 03:35:50 41° ESE 03:41:11 10° NE
Cosmos 1733 Rocket 3.5 03:32:26 10° N 03:36:10 59° NNE 03:36:10 59° NNE
Cosmos 2242 Rocket 4.0 03:37:46 59° N 03:37:46 59° N 03:41:32 10° N
Meteor 2-3 Rocket 4.3 03:32:26 10° NNW 03:37:03 45° WNW 03:37:03 45° WNW
Cosmos 1455 3.3 03:39:56 45° NNE 03:39:56 45° NNE 03:42:46 10° NNE
Meteor 2-10 3.9 03:38:59 84° WSW 03:39:06 86° W 03:44:26 10° N
Cosmos 1869 3.9 03:47:13 55° NE 03:47:13 55° NE 03:50:35 10° NNE
Cosmos 1992 Rocket 4.3 03:42:57 10° NNW 03:48:11 66° ENE 03:51:44 21° SE
CZ-4C R/B 4.0 03:45:48 18° WNW 03:48:24 24° NNW 03:53:30 10° NNE
Cosmos 1656 Rocket 3.8 03:43:18 10° NNW 03:48:43 67° ENE 03:54:06 10° SE
Cosmos 1709 Rocket 3.9 03:43:07 10° NNW 03:49:23 66° W 03:50:16 59° SW
ERS-2 2.9 03:47:13 10° NNE 03:50:05 50° NNE 03:50:05 50° NNE
AQUA 4.5 03:49:42 10° N 03:53:46 42° NW 03:53:46 42° NW
Cosmos 389 Rocket 3.5 03:55:33 46° NE 03:55:33 46° NE 03:58:17 10° NNE
IRS-1C 4.2 03:49:55 10° N 03:55:09 57° WNW 03:55:27 56° W
ADEOS 3.4 03:50:08 10° N 03:55:21 70° WNW 03:55:46 67° WSW
SL-16 R/B 2.4 03:59:00 40° S 04:01:23 75° WSW 04:07:37 10° NNW
ATLAS 5 CENTAUR R/B 2.2 04:02:30 51° WNW 04:03:07 54° NW 04:08:22 10° NNE
Cosmos 1825 2.7 04:01:55 10° N 04:05:41 57° E 04:06:16 50° ESE
Cosmos 1908 Rocket 3.6 04:06:11 10° N 04:10:35 74° E 04:12:00 41° SSE
SL-27 R/B 2.8 04:12:42 61° N 04:12:42 61° N 04:15:47 10° NNE
COSMOS 2487 4.3 04:12:26 23° SE 04:13:32 27° ESE 04:16:37 10° NE
Cosmos 2074 Rocket 3.9 04:07:36 10° N 04:13:52 88° E 04:19:02 16° S
Cosmos 1933 3.7 04:12:57 46° SSE 04:13:54 61° E 04:17:58 10° NNE
Cosmos 2327 Rocket 4.4 04:09:20 10° N 04:15:30 87° E 04:20:49 15° S
CZ-2D R/B 2.0 04:10:59 10° NNE 04:16:16 85° WNW 04:18:00 44° SSW
Cosmos 2184 Rocket 3.9 04:17:15 10° N 04:23:41 83° W 04:29:21 13° S
BREEZE-M DEB (TANK) 3.5 04:24:18 25° W 04:27:21 47° NNW 04:30:25 10° NE
Aureole 3 Rocket 4.0 04:23:10 12° S 04:28:30 56° E 04:32:44 10° NNE
Cosmos 1703 Rocket 3.7 04:29:12 30° S 04:31:23 75° E 04:35:53 10° NNE
Resurs 1-4 Rocket 2.2 04:27:55 10° N 04:33:07 61° WNW 04:35:07 36° SW
CZ-4B R/B 4.4 04:30:59 10° NNE 04:34:21 31° E 04:37:50 10° SSE
SeaSat 1 2.8 04:29:46 10° SE 04:34:39 65° ENE 04:39:33 10° NNW
Okean O Rocket 2.3 04:30:57 10° NNE 04:35:20 52° E 04:38:45 16° S
Cosmos 1610 Rocket 4.5 04:29:00 10° N 04:35:23 88° E 04:41:39 10° S
USA 234 3.5 04:29:20 10° NE 04:35:52 64° SE 04:39:44 26° SSW
ADEOS II 4.3 04:34:04 10° NE 04:38:11 23° E 04:42:17 10° SE
Cosmos 2221 Rocket 3.6 04:37:05 27° S 04:39:30 81° E 04:43:56 10° N
CZ-2C R/B 3.7 04:36:29 10° SSE 04:40:54 77° ENE 04:45:21 10° N
Cosmos 407 Rocket 3.8 04:38:38 21° S 04:42:10 67° ESE 04:47:26 10° NNE
BREEZE-M DEB (TANK) 4.2 04:42:19 25° SSE 04:42:58 28° SE 04:46:45 10° ENE
Abrixas rocket 3.7 04:49:02 24° S 04:49:02 24° S 04:50:47 10° SSE
Okean 1-7 3.2 04:45:59 17° S 04:49:16 73° E 04:53:38 10° NNE
MOS 1-B 4.4 04:44:37 10° N 04:50:22 66° WNW 04:54:06 22° SSW
Sich 1 Rocket 4.2 04:47:25 10° NNW 04:51:23 33° W 04:51:59 32° WSW
Cosmos 2341 Rocket 4.3 04:45:47 10° N 04:52:06 70° E 04:58:25 10° SSE
Cosmos 2151 Rocket 4.5 04:53:07 10° N 04:57:26 51° ENE 05:01:42 10° SSE
Cosmos 2278 4.0 04:53:13 10° NNW 04:58:57 70° ENE 05:04:39 10° SE
Cosmos 2285 Rocket 4.5 04:53:33 10° NW 04:59:23 38° W 05:05:09 10° SSW
IRS-1C Rocket 4.1 04:55:46 10° NNE 05:01:05 87° WNW 05:06:01 12° SSW
Cosmos 1408 3.5 04:58:26 10° NNW 05:01:44 29° W 05:02:00 29° W
ARIANE 5 R/B 3.6 04:58:07 10° N 05:02:32 28° WNW 05:04:39 22° W
EO 1 Del DPAF 4.4 05:04:07 25° W 05:04:07 25° W 05:07:17 10° NW
ARGOS Delta rocket 3.8 04:59:45 10° N 05:04:03 54° WNW 05:06:48 21° SW
CENTAUR R/B 3.2 05:01:24 21° WSW 05:05:27 47° NW 05:12:21 10° NNE
UNKNOWN OBJECT B 3.6 05:02:41 10° N 05:06:01 31° WNW 05:07:06 26° WSW
Cosmos 1943 Rocket 4.0 05:07:50 10° WNW 05:08:49 12° WNW 05:08:49 12° WNW
Meteor 1-26 Rocket 4.3 05:06:21 10° SSW 05:12:13 76° WNW 05:18:09 10° N
Cosmos 2369 3.8 05:09:03 10° NNW 05:14:49 82° ENE 05:20:33 10° SSE
Cosmos 1455 4.5 05:15:00 11° WNW 05:15:06 11° WNW 05:15:58 10° NW
CZ-2D R/B 4.2 05:12:22 10° N 05:16:23 37° WNW 05:18:52 19° SW
CZ-4B R/B 3.1 05:13:50 10° NNE 05:19:09 80° WNW 05:24:26 10° SSW
COSMOS 2406 4.0 05:16:35 18° WSW 05:20:13 36° NW 05:25:31 10° NNE
Okean 2 Rocket 3.5 05:16:33 10° NNW 05:20:49 42° W 05:25:04 10° SSW
Cosmos 1400 Rocket 4.2 05:17:54 10° N 05:21:38 41° ENE 05:25:18 10° SE
ERS-2 4.4 05:23:27 10° NW 05:24:09 10° WNW 05:24:52 10° WNW
CZ-4B DEB 4.2 05:21:46 10° NNE 05:27:14 75° WNW 05:32:41 10° SSW
Cosmos 2208 Rocket 4.4 05:22:33 10° NNW 05:28:03 74° ENE 05:33:27 10° SSE
Cosmos 1782 Rocket 4.4 05:24:38 10° NNW 05:28:20 28° W 05:32:02 10° SSW
USA 129 1.2 05:27:15 10° SSE 05:28:47 70° ENE 05:30:32 10° N
Cosmos 1570 Rocket 4.0 05:31:12 10° NNW 05:36:28 89° WSW 05:41:43 10° SSE
Cosmos 2082 Rocket 3.1 05:31:31 10° S 05:37:01 50° ESE 05:42:30 10° NE
Cosmos 1606 4.0 05:35:15 10° SSE 05:38:59 44° E 05:42:43 10° NNE
Cosmos 1825 4.2 05:39:42 10° WNW 05:40:46 11° W 05:41:08 11° W
Cosmos 1300 Rocket 4.0 05:37:22 10° N 05:41:41 64° E 05:45:57 10° SSE
Cosmos 1023 Rocket 4.5 05:36:43 10° SSW 05:41:49 87° ESE 05:46:58 10° NNE
Cosmos 1833 Rocket 3.9 05:36:35 10° S 05:41:52 44° ESE 05:47:10 10° NE
Cosmos 2366 rocket 4.3 05:38:23 10° N 05:44:37 76° E 05:50:46 10° SSE
SL-16 R/B 4.2 05:44:06 10° WSW 05:46:04 12° W 05:48:19 10° WNW
ATLAS 5 CENTAUR R/B 4.0 05:45:37 10° WNW 05:49:05 18° NNW 05:52:45 10° NNE
COSMOS 2487 3.9 05:46:30 11° WSW 05:49:08 22° WNW 05:52:03 10° N
Cosmos 1954 Rocket 4.1 05:44:44 10° SW 05:49:50 58° WNW 05:55:01 10° NNE
Meteor 1-10 Rocket 4.3 05:48:51 10° S 05:54:39 86° W 06:00:23 10° N
CZ-2D R/B 3.9 05:52:54 10° NNW 05:55:33 14° NW 05:58:11 10° W
Thor Agena Rocket 4.1 05:52:33 10° SSW 05:57:16 35° W 06:02:04 10° NNW
COSMO-SKYMED 1 3.8 05:53:17 10° SE 05:57:26 47° ENE 06:01:37 10° N
Atlas Centaur 2 3.8 05:56:58 10° S 05:57:31 10° S 05:58:06 10° S
Cosmos 2181 Rocket 4.2 05:53:03 10° SSW 05:59:19 54° WNW 06:05:33 10° N
Cosmos 1782 2.8 05:55:26 10° SSW 05:59:26 65° W 06:03:29 10° N
MOS 1 Rocket 3.7 05:56:41 10° NNE 06:00:56 60° E 06:05:12 10° S
Cosmos 1356 3.9 05:58:24 10° NNW 06:01:44 39° W 06:05:03 10° SSW
SL-08 R/B 4.4 05:56:11 10° NNW 06:02:20 75° W 06:08:25 10° S
